Retour au catalogue

STARLINK-32314

ActifCommunicationsVLEO
NORAD 61709·PAYLOAD·🇺🇸 United States

Lancé Oct 30, 2024 depuis Cape Canaveral Space Force Station

Loading…

Prochains Passages (prochaines 24 heures)

TLE

FraisSource: CelesTrak SupGP

Époque: Sep 15, 2026, 02:46 UTC

1 61709C 24196C   26258.11576389  .00030275  00000+0  89429-3 0  2587
2 61709  53.1576 299.1249 0001141  92.6844 199.0354 15.34382883    15

Suivez STARLINK-32314 en temps réel avec AllMySat

Download on the App Store